Regional Weather Roundup
Issued by NWS

Home | Current Version | Previous Version | Graphics & Text | Print | Product List | Glossary On
Versions: 1 2 3 4 5 6 7 8 9 10 11 12 13 14 15 16 17 18 19 20 21 22 23 24 25 26 27 28 29 30 31 32 33 34 35 36 37 38 39 40 41 42 43 44 45 46 47 48 49 50
000
ASUS45 KBOU 240010
RWRCO

WEATHER ROUNDUP FOR COLORADO
NATIONAL WEATHER SERVICE DENVER/BOULDER CO
500 PM MST THU NOV 23 2017

NOTE: "FAIR" INDICATES FEW OR NO CLOUDS BELOW 12000 FEET WITH NO
SIGNIFICANT WEATHER AND/OR OBSTRUCTIONS TO VISIBILITY.

COZ001>005-013-030-031-240100-
...NORTHWEST COLORADO...

CITY           SKY/WX    TMP DP  RH WIND       PRES   REMARKS
CRAIG          FAIR      49  33  54 S5        30.18F
HAYDEN         FAIR      52  37  56 SE5       30.21F
MEEKER         FAIR      55  34  45 SW9       30.20S
RABBIT EARS PA FAIR      32  32 100 W10G20    30.33F FOG     WCI  24
STEAMBOAT SPGS FAIR      48  36  63 CALM      30.21F
WALDEN         FAIR      48  30  49 SW22G29   30.22F
$$

COZ006>008-011-240100-
...WEST CENTRAL VALLEYS...

CITY           SKY/WX    TMP DP  RH WIND       PRES   REMARKS
GRAND JUNCTION FAIR      54  35  48 NW3       30.19F
MONTROSE       FAIR      54  34  46 N5        30.23F
EAGLE          FAIR      52  34  50 CALM      30.25R
RIFLE          FAIR      49  37  63 SW6       30.22S
DELTA          FAIR      58  34  39 CALM      30.20F
NUCLA          FAIR      61  32  33 N3        30.28F
$$

COZ017>023-064>068-240100-
...SOUTHWEST COLORADO...

CITY           SKY/WX    TMP DP  RH WIND       PRES   REMARKS
DURANGO        FAIR      53  29  39 SW6       30.24S
CORTEZ         FAIR      54  32  43 W3        30.23F
PAGOSA SPRINGS FAIR      49  25  39 CALM      30.29S
TELLURIDE      FAIR      51  19  27 W7        30.38S
WOLF CREEK PAS FAIR      36  23  60 SW10      30.53F
$$

COZ009-010-012-014-032>034-037-058>063-240100-
...CENTRAL COLORADO...

CITY           SKY/WX    TMP DP  RH WIND       PRES   REMARKS
ASPEN          FAIR      43  31  62 S6        30.28R
BUENA VISTA    FAIR      53  18  25 W9        30.22F
COPPER MTN     FAIR      36  27  69 MISG      30.44S
BERTHOUD PASS  FAIR      30  19  64 NW47G64   30.34F WCI  12
COTTONWOOD PAS FAIR      54  14  20 W9G22     30.33S
GUNNISON       FAIR      46  30  53 CALM      30.29F
KREMMLING      FAIR      50  34  53 SW6       30.24F
LEADVILLE      FAIR      42  17  36 NW13G18   30.34S
MONARCH PASS   FAIR      34  23  64 W29       30.53F WCI  20
SALIDA         FAIR      56  23  27 SW13G24   30.29S
SUNLIGHT       FAIR      34  23  64 SW16G22   30.43F WCI  23
WILKERSON PASS FAIR      41   9  26 W9G16     30.38F
$$

COZ069>075-240100-
...SAN LUIS VALLEY/SANGRE DE CRISTO MOUNTAINS...

CITY           SKY/WX    TMP DP  RH WIND       PRES   REMARKS
ALAMOSA        FAIR      52  27  38 CALM      30.25F
DEL NORTE      FAIR      49  29  46 CALM      30.29S
LA VETA PASS   FAIR      43  18  36 S21G28      N/A
SAGUACHE       FAIR      45  28  53 E3        30.29S
$$

COZ035-036-038>040-240100-
...NORTHERN COLORADO FRONT RANGE...

CITY           SKY/WX    TMP DP  RH WIND       PRES   REMARKS
DENVER INTL AP MOCLDY    60  23  24 S8        30.01S
DMNS CITY PARK   N/A     64  18  17 E9        30.01S
AURORA         MOCLDY    61  21  21 W13       30.03F
FRONT RANGE AP MOCLDY    63  25  23 VRB6      30.03S
ERIE MUNI ARPT FAIR      64  20  18 W10       30.05S
BOULDER MUN AP FAIR      63  27  25 E3        30.01S
CENTENNIAL     MOCLDY    56  28  34 CALM      30.04F
BROOMFIELD     MOCLDY    66  18  15 NW12      30.03F
FORT COLLINS   FAIR      58  36  43 SW3       29.98F
LONGMONT       FAIR      66  25  21 W13       30.00F
$$

COZ041-046-047-076>085-087-088-240100-
...PIKES PEAK/PALMER DIVIDE AND SOUTHERN FOOTHILLS...

CITY           SKY/WX    TMP DP  RH WIND       PRES   REMARKS
COLO. SPRINGS  MOCLDY    57  29  34 SE8       30.09F
A. F. ACADEMY  FAIR      54  30  39 CALM      30.10F
SCHRIEVER AFB  FAIR      54  27  35 CALM      30.10S
CHEYENNE MTN   MOCLDY    56  21  25 CALM      30.06F
ELLICOTT         N/A    N/A N/A N/A S3        30.08S
FALCON         FAIR      51  26  37 W6        30.13F
FORT CARSON    FAIR      59  29  32 S5        30.06F
LIMON          FAIR      55  34  45 SW10      30.02F
MONUMENT HILL  FAIR      50  27  40 S7        30.13F
CANON CITY     FAIR      64  27  24 W3        30.04F
WALSENBURG     FAIR      64  19  17 W15       30.09F
TRINIDAD       FAIR      62  32  32 S3        30.09S
$$

COZ042>045-048>051-090-091-240100-
...NORTHEAST COLORADO...

CITY           SKY/WX    TMP DP  RH WIND       PRES   REMARKS
GREELEY ARPT   NOT AVBL
AKRON          FAIR      55  26  32 SW7       29.96F
BURLINGTON     FAIR      55  36  48 SW10      29.98F
WRAY           NOT AVBL
YUMA           FAIR      50  18  27 W8        29.94F
STERLING       FAIR      52  32  46 W9        29.91F
HOLYOKE        FAIR      59  34  38 SW7       29.90F
FORT MORGAN    FAIR      62  27  26 CALM      29.96F
$$

COZ086-089-092>099-240100-
...SOUTHEAST COLORADO...

CITY           SKY/WX    TMP DP  RH WIND       PRES   REMARKS
PUEBLO         FAIR      60  30  32 SE7       30.00F
LA JUNTA       FAIR      62  35  36 S6        30.00F
LAMAR          FAIR      60  34  37 S7        29.97F
SPRINGFIELD      N/A     54  34  46 S6        30.03S
$$



USA.gov is the U.S. government's official web portal to all federal, state and local government web resources and services.